リニア彗星

194P/LINEAR (2000)

English version
Home page
Updated on November 28, 2007

---------------------------------------------------------------------

・ プロフィール

符号 194P/2000 B3
発見日 2000年1月27日
発見光度 18.9等
発見者 Lincoln Laboratory Near-Earth Asteroid Research project

・ 軌道要素

                    Epoch = 2000 Feb. 26.0 TT
     T = 2000 Feb. 14.1600 TT         Peri. = 130.5069
     e = 0.575215                     Node  = 352.1471  2000.0
     q = 1.700254 AU                  Incl. =  11.1263
       a =  4.002627 AU    n = 0.1230797    P =   8.008 years

・ 星図

・ 光度変化

        m1 = 17   + 5 logΔ + 10 log r          [   ,-20]  (              〜2000年 1月25日)
        m1 = -4.5 + 5 logΔ + 85 log r(t - 69)  [-20,   ]  (2000年 1月25日〜              )

---------------------------------------------------------------------

軌道要素は、IAUC 8900に掲載されたものです。
星図は StellaNavigator Ver.2.0 for Windows (アストロアーツ 編著 / アスキー出版局刊) で作成したものです。
光度グラフはComet for Windowsで作成したものです。

---------------------------------------------------------------------

Copyright(C) Seiichi Yoshida (comet@aerith.net). All rights reserved.